View from above orbital plane
|
View from above satellite
|
Ground track
|
The orbit data is extracted from the following two-line orbital elements,
1 03598U 68110B 21018.42515982 .00000037 00000-0 13411-4 0 9993
2 03598 34.9929 131.6565 0048727 65.1971 295.3780 14.54504704736573
Epoch (UTC): | 18 January 2021 10:12:13 |
Eccentricity: | 0.0048727 |
inclination: | 34.9929° |
perigee height: | 676 km |
apogee height: | 745 km |
right ascension of ascending node: | 131.6565° |
argument of perigee: | 65.1971° |
revolutions per day: | 14.54504704 |
mean anomaly at epoch: | 295.3780° |
orbit number at epoch: | 73657 |
The dashed part of the orbit path shows where the satellite is in the earth's shadow,
|
|